Time,TemperatureF,DewpointF,PressureIn,WindDirection,WindDirectionDegrees,WindSpeedMPH,WindSpeedGustMPH,Humidity,HourlyPrecipIn,Conditions,Clouds,dailyrainin,SolarRadiationWatts/m^2,SoftwareType,DateUTC
2015-09-02 00:03:00,69.6,63.9,30.03,WNW,298,0.0,0.0,82,0.00,,,0.00,0.0,meteobridge,2015-09-02 04:03:00,
2015-09-02 00:13:00,69.4,63.7,30.03,WNW,298,0.0,0.0,82,0.00,,,0.00,0.0,meteobridge,2015-09-02 04:13:00,
2015-09-02 00:23:00,69.3,63.9,30.03,WNW,298,0.0,0.0,83,0.00,,,0.00,0.0,meteobridge,2015-09-02 04:23:00,
2015-09-02 00:33:00,69.3,63.5,30.03,WNW,298,0.0,0.0,82,0.00,,,0.00,0.0,meteobridge,2015-09-02 04:33:00,
2015-09-02 00:43:00,69.1,63.3,30.03,WNW,298,0.0,0.0,82,0.00,,,0.00,0.0,meteobridge,2015-09-02 04:43:00,
2015-09-02 00:53:00,69.1,63.7,30.03,WNW,298,0.0,0.0,83,0.00,,,0.00,0.0,meteobridge,2015-09-02 04:53:00,
2015-09-02 01:03:00,69.1,63.7,30.03,WNW,298,0.0,0.0,83,0.00,,,0.00,0.0,meteobridge,2015-09-02 05:03:00,
2015-09-02 01:13:00,69.1,63.7,30.03,WNW,298,0.0,0.0,83,0.00,,,0.00,0.0,meteobridge,2015-09-02 05:13:00,
2015-09-02 01:23:00,69.3,63.9,30.03,WNW,298,0.0,0.0,83,0.00,,,0.00,0.0,meteobridge,2015-09-02 05:23:00,
2015-09-02 01:43:00,69.6,63.9,30.02,WNW,298,0.0,0.0,82,0.00,,,0.00,0.0,meteobridge,2015-09-02 05:43:00,
2015-09-02 01:53:00,70.0,63.5,30.02,WNW,298,0.0,0.0,80,0.00,,,0.00,0.0,meteobridge,2015-09-02 05:53:00,
2015-09-02 02:03:00,70.0,63.9,30.02,WNW,298,0.0,0.0,81,0.00,,,0.00,0.0,meteobridge,2015-09-02 06:03:00,
2015-09-02 02:13:00,70.0,63.9,30.01,WNW,298,0.0,0.0,81,0.00,,,0.00,0.0,meteobridge,2015-09-02 06:13:00,
2015-09-02 02:23:00,69.6,63.5,30.01,WNW,298,0.0,0.0,81,0.00,,,0.00,0.0,meteobridge,2015-09-02 06:23:00,
2015-09-02 02:33:00,69.4,63.3,30.01,WNW,298,0.0,0.0,81,0.00,,,0.00,0.0,meteobridge,2015-09-02 06:33:00,
2015-09-02 02:43:00,69.4,63.3,30.01,WNW,298,0.0,0.0,81,0.00,,,0.00,0.0,meteobridge,2015-09-02 06:43:00,
2015-09-02 02:53:00,69.4,63.3,30.01,WNW,298,0.0,0.0,81,0.00,,,0.00,0.0,meteobridge,2015-09-02 06:53:00,
2015-09-02 03:03:00,69.1,63.0,30.01,WNW,298,0.0,0.0,81,0.00,,,0.00,0.0,meteobridge,2015-09-02 07:03:00,
2015-09-02 03:13:00,68.9,62.8,30.01,WNW,298,0.0,0.0,81,0.00,,,0.00,0.0,meteobridge,2015-09-02 07:13:00,
2015-09-02 03:23:00,68.5,62.8,30.01,WNW,298,0.0,0.0,82,0.00,,,0.00,0.0,meteobridge,2015-09-02 07:23:00,
2015-09-02 03:33:00,68.2,62.8,30.01,WNW,298,0.0,0.0,83,0.00,,,0.00,0.0,meteobridge,2015-09-02 07:33:00,
2015-09-02 03:43:00,67.6,62.2,30.00,WNW,298,0.0,0.0,83,0.00,,,0.00,0.0,meteobridge,2015-09-02 07:43:00,
2015-09-02 03:53:00,67.5,62.4,30.00,WNW,298,0.0,0.0,84,0.00,,,0.00,0.0,meteobridge,2015-09-02 07:53:00,
2015-09-02 04:03:00,67.5,62.4,30.00,WNW,298,0.0,0.0,84,0.00,,,0.00,0.0,meteobridge,2015-09-02 08:03:00,
2015-09-02 04:13:00,67.5,62.4,30.00,WNW,298,0.0,0.0,84,0.00,,,0.00,0.0,meteobridge,2015-09-02 08:13:00,
2015-09-02 04:24:00,67.5,62.8,30.01,WNW,298,0.0,0.0,85,0.00,,,0.00,0.0,meteobridge,2015-09-02 08:24:00,
2015-09-02 04:33:00,67.3,62.6,30.01,WNW,298,0.0,0.0,85,0.00,,,0.00,0.0,meteobridge,2015-09-02 08:33:00,
2015-09-02 04:43:00,66.9,62.2,30.01,WNW,298,0.0,0.0,85,0.00,,,0.00,0.0,meteobridge,2015-09-02 08:43:00,
2015-09-02 04:54:00,66.9,62.6,30.01,WNW,298,0.0,0.0,86,0.00,,,0.00,0.0,meteobridge,2015-09-02 08:54:00,
2015-09-02 05:03:00,66.7,62.4,30.01,WNW,298,0.0,0.0,86,0.00,,,0.00,0.0,meteobridge,2015-09-02 09:03:00,
2015-09-02 05:14:00,66.6,62.6,30.01,WNW,298,0.0,0.0,87,0.00,,,0.00,0.0,meteobridge,2015-09-02 09:14:00,
2015-09-02 05:23:00,66.4,62.4,30.01,WNW,298,0.0,0.0,87,0.00,,,0.00,0.0,meteobridge,2015-09-02 09:23:00,
2015-09-02 05:33:00,66.2,62.2,30.01,WNW,298,0.0,0.0,87,0.00,,,0.00,0.0,meteobridge,2015-09-02 09:33:00,
2015-09-02 05:44:00,66.2,62.6,30.01,WNW,298,0.0,0.0,88,0.00,,,0.00,0.0,meteobridge,2015-09-02 09:44:00,
2015-09-02 05:53:00,66.0,62.4,30.01,WNW,298,0.0,0.0,88,0.00,,,0.00,0.0,meteobridge,2015-09-02 09:53:00,
2015-09-02 06:03:00,66.0,62.6,30.01,WNW,298,0.0,0.0,89,0.00,,,0.00,0.0,meteobridge,2015-09-02 10:03:00,
2015-09-02 06:14:00,66.0,62.6,30.01,WNW,298,0.0,0.0,89,0.00,,,0.00,0.0,meteobridge,2015-09-02 10:14:00,
2015-09-02 06:24:00,66.0,62.6,30.01,WNW,298,0.0,0.0,89,0.00,,,0.00,0.0,meteobridge,2015-09-02 10:24:00,
2015-09-02 06:34:00,66.2,63.1,30.01,WNW,298,0.0,0.0,90,0.00,,,0.00,0.0,meteobridge,2015-09-02 10:34:00,
2015-09-02 06:44:00,66.2,63.1,30.02,WNW,298,0.0,0.0,90,0.00,,,0.00,0.0,meteobridge,2015-09-02 10:44:00,
2015-09-02 06:54:00,66.4,63.3,30.02,WNW,298,0.0,0.0,90,0.00,,,0.00,7.0,meteobridge,2015-09-02 10:54:00,